, SD

(GMT )
Rapid City

Weather History for KRAP - April, 2014

Change the Weather History Date:

Wednesday, April 30, 2014

  Actual Average Record
Temperature  
Mean Temperature 43 °F 50 °F  
Max Temperature 52 °F 63 °F 92 °F (1992)
Min Temperature 34 °F 37 °F 9 °F (1950)
Degree Days  
Heating Degree Days 22 15  
Month to date heating degree days 642 602  
Since 1 July heating degree days 7292 6729  
Cooling Degree Days 0 0  
Month to date cooling degree days 0 2  
Year to date cooling degree days 0 2  
Moisture  
Dew Point 28 °F    
Average Humidity 61    
Maximum Humidity 82    
Minimum Humidity 39    
Precipitation  
Precipitation T in 0.09 in 2.06 in (1967)
Month to date precipitation 2.27 1.80  
Year to date precipitation 3.85 3.47  
Snow  
Snow 0.00 in 0.20 in 13.60 in (1967)
Month to date snowfall 6.3 7.9  
Since 1 July snowfall 63.7 40.0  
Snow Depth 0.00 in    
Sea Level Pressure  
Sea Level Pressure 30.25 in    
Wind  
Wind Speed 28 mph (NNW)    
Max Wind Speed 41 mph    
Max Gust Speed 50 mph    
Visibility 10 miles    
Events Rain    
T = Trace of Precipitation, MM = Missing Value Source: NWS Daily Summary

Daily Weather History Graph

Daily Weather History Graph

Search for Another Location

Airport or City:

Trip Planner

Search our weather history database for the weather conditions in past years. The results will help you decide how hot, cold, wet, or windy it might be!

Date:

Astronomy

Apr. 30, 2014 Rise Set
Actual Time 5:45 AM MDT 7:54 PM MDT
Civil Twilight 5:13 AM MDT 8:26 PM MDT
Nautical Twilight 4:34 AM MDT 9:05 PM MDT
Astronomical Twilight 3:51 AM MDT 9:48 PM MDT
Moon 6:46 AM MDT (4/30) 9:37 PM MDT (4/30)
Length of Visible Light 15h 12m
Length of Day
14h 09m
Waxing Crescent, 3% of the Moon is Illuminated
Apr 30
Waxing Crescent
May 6
First Quarter
May 14
Full
May 21
Last Quarter
May 28
New

Hourly Weather History & Observations

Time (MDT) Temp. Windchill Dew Point Humidity Pressure Visibility Wind Dir Wind Speed Gust Speed Precip Events Conditions
12:52 AM 36.0 °F 23.2 °F 30.0 °F 79% 30.30 in 10.0 mi NW 28.8 mph 40.3 mph N/A   Overcast
1:52 AM 36.0 °F 23.5 °F 28.9 °F 76% 30.29 in 10.0 mi NNW 27.6 mph 35.7 mph N/A   Overcast
2:52 AM 35.1 °F 22.0 °F 28.0 °F 76% 30.27 in 10.0 mi NW 28.8 mph 41.4 mph N/A   Overcast
3:52 AM 34.0 °F 21.0 °F 26.1 °F 73% 30.29 in 10.0 mi NW 26.5 mph 32.2 mph N/A   Scattered Clouds
4:52 AM 34.0 °F 21.0 °F 27.0 °F 75% 30.28 in 10.0 mi NW 26.5 mph - N/A   Mostly Cloudy
5:52 AM 35.1 °F 22.0 °F 25.0 °F 67% 30.27 in 10.0 mi NW 28.8 mph - N/A   Overcast
6:52 AM 34.0 °F 20.5 °F 27.0 °F 75% 30.28 in 10.0 mi NW 28.8 mph 38.0 mph N/A   Scattered Clouds
7:52 AM 37.0 °F 24.1 °F 27.0 °F 67% 30.28 in 10.0 mi NW 32.2 mph 43.7 mph N/A   Scattered Clouds
8:52 AM 41.0 °F 29.5 °F 28.4 °F 61% 30.21 in 10.0 mi NNW 32.2 mph 41.4 mph N/A   Mostly Cloudy
9:52 AM 39.9 °F 27.5 °F 28.9 °F 65% 30.29 in 10.0 mi NNW 35.7 mph 43.7 mph N/A   Overcast
10:52 AM 45.0 °F 34.9 °F 30.9 °F 58% 30.27 in 10.0 mi NNW 32.2 mph 47.2 mph N/A   Mostly Cloudy
11:52 AM 46.0 °F 35.5 °F 30.0 °F 54% 30.26 in 10.0 mi NNW 39.1 mph 48.3 mph N/A   Mostly Cloudy
12:52 PM 48.0 °F - 30.0 °F 50% 30.25 in 10.0 mi NNW 33.4 mph 46.0 mph N/A   Scattered Clouds
1:52 PM 48.9 °F - 28.0 °F 44% 30.23 in 10.0 mi NNW 33.4 mph 46.0 mph N/A   Mostly Cloudy
2:52 PM 51.1 °F - 28.0 °F 41% 30.22 in 10.0 mi NNW 34.5 mph 48.3 mph N/A   Mostly Cloudy
3:52 PM 50.0 °F - 27.0 °F 41% 30.22 in 10.0 mi NNW 31.1 mph 43.7 mph N/A   Mostly Cloudy
4:52 PM 50.0 °F - 28.9 °F 44% 30.21 in 10.0 mi NNW 31.1 mph 40.3 mph N/A   Overcast
5:52 PM 48.0 °F - 30.9 °F 52% 30.22 in 10.0 mi NNW 31.1 mph 40.3 mph 0.00 in Rain Light Rain
6:52 PM 48.9 °F - 30.0 °F 48% 30.21 in 10.0 mi NNW 28.8 mph 38.0 mph 0.00 in   Scattered Clouds
7:52 PM 45.0 °F 36.6 °F 28.0 °F 52% 30.21 in 10.0 mi North 21.9 mph - N/A   Clear
8:52 PM 43.0 °F 34.2 °F 28.0 °F 56% 30.22 in 10.0 mi NNW 20.7 mph 27.6 mph N/A   Clear
9:52 PM 41.0 °F 32.5 °F 28.9 °F 62% 30.23 in 10.0 mi NW 17.3 mph - N/A   Scattered Clouds
10:52 PM 44.1 °F 35.7 °F 28.9 °F 55% 30.20 in 10.0 mi NNW 20.7 mph - N/A   Mostly Cloudy
11:52 PM 43.0 °F 34.2 °F 28.9 °F 58% 30.20 in 10.0 mi NNW 20.7 mph - N/A   Mostly Cloudy